Location: Lafig�re
(44.4503°N, 4.0357°E)
Time: 08:39:18
(UTC+00:00)

S-56A Canister/Altair - Visible Passes

Search period start: 24 January 2021 00:00
Search period end: 03 February 2021 00:00
Orbit: 633 x 2499 km, 38.9° (Epoch: 23 January)

Date Brightness Start Highest point End Pass type
(mag) Time Alt. Az. Time Alt. Az. Time Alt. Az.
24 Jan 10.4 03:13:23 10° E 03:13:23 10° E 03:13:24 10° E visible
24 Jan 8.1 05:10:48 34° SW 05:12:07 42° S 05:17:39 10° ESE visible
25 Jan 8.1 04:39:55 42° S 04:39:55 42° S 04:44:45 10° ESE visible
26 Jan 8.9 04:09:02 28° SE 04:09:02 28° SE 04:11:56 10° ESE visible
26 Jan 9.1 06:06:28 11° WSW 06:10:21 25° SSW 06:15:21 10° SE visible
27 Jan 9.9 03:38:10 15° ESE 03:38:10 15° ESE 03:39:12 10° ESE visible
27 Jan 8.8 05:35:35 19° WSW 05:37:48 26° SSW 05:42:34 10° SE visible
28 Jan 8.5 05:04:44 27° SSW 05:05:17 28° SSW 05:09:50 10° SE visible
29 Jan 8.7 04:33:54 26° S 04:33:54 26° S 04:37:09 10° SE visible
30 Jan 9.5 04:03:06 17° SE 04:03:06 17° SE 04:04:32 10° SE visible
30 Jan 9.5 06:01:39 10° SW 06:03:21 12° SSW 06:05:09 10° S visible
31 Jan 9.3 05:29:44 12° SW 05:30:49 13° SSW 05:33:02 10° S visible
01 Feb 9.3 04:58:58 14° SSW 04:58:58 14° SSW 05:00:51 10° S visible
02 Feb 9.7 04:28:15 11° S 04:28:15 11° S 04:28:39 10° SSE visible
